TimeEST,TemperatureF,Dew PointF,Humidity,Sea Level PressureIn,VisibilityMPH,Wind Direction,Wind SpeedMPH,Gust SpeedMPH,PrecipitationIn,Events,Conditions,WindDirDegrees,DateUTC
12:53 AM,44.6,39.2,81,30.21,10.0,Calm,Calm,-,N/A,,Clear,0,2011-11-08 05:53:00
1:53 AM,45.0,41.0,86,30.21,10.0,SW,3.5,-,N/A,,Clear,230,2011-11-08 06:53:00
2:53 AM,45.0,41.0,86,30.20,10.0,Calm,Calm,-,N/A,,Clear,0,2011-11-08 07:53:00
3:53 AM,44.6,39.2,81,30.20,10.0,South,3.5,-,N/A,,Clear,180,2011-11-08 08:53:00
4:53 AM,46.9,42.1,83,30.22,10.0,Calm,Calm,-,N/A,,Clear,0,2011-11-08 09:53:00
5:53 AM,42.1,39.9,92,30.22,8.0,Calm,Calm,-,N/A,,Clear,0,2011-11-08 10:53:00
6:53 AM,42.8,39.2,87,30.24,6.0,Calm,Calm,-,N/A,,Clear,0,2011-11-08 11:53:00
7:53 AM,50.0,46.0,86,30.25,9.0,Calm,Calm,-,N/A,,Clear,0,2011-11-08 12:53:00
8:53 AM,61.0,48.9,64,30.25,10.0,Variable,3.5,-,N/A,,Clear,0,2011-11-08 13:53:00
9:53 AM,66.0,46.9,50,30.25,10.0,NE,4.6,-,N/A,,Clear,40,2011-11-08 14:53:00
10:53 AM,66.9,46.9,49,30.24,10.0,Variable,3.5,-,N/A,,Clear,0,2011-11-08 15:53:00
11:53 AM,66.9,46.9,49,30.22,10.0,West,3.5,-,N/A,,Clear,280,2011-11-08 16:53:00
12:53 PM,68.0,46.0,45,30.20,10.0,SSW,3.5,-,N/A,,Clear,200,2011-11-08 17:53:00
1:53 PM,66.9,48.0,51,30.19,10.0,SE,6.9,-,N/A,,Clear,130,2011-11-08 18:53:00
2:53 PM,66.9,48.9,52,30.20,10.0,South,6.9,-,N/A,,Clear,180,2011-11-08 19:53:00
3:53 PM,64.0,48.0,56,30.19,10.0,South,5.8,-,N/A,,Clear,190,2011-11-08 20:53:00
4:53 PM,57.0,48.0,72,30.21,10.0,SSW,4.6,-,N/A,,Clear,210,2011-11-08 21:53:00
5:53 PM,55.4,46.4,72,30.22,10.0,Calm,Calm,-,N/A,,Clear,0,2011-11-08 22:53:00
6:53 PM,52.0,46.0,80,30.24,10.0,South,3.5,-,N/A,,Clear,170,2011-11-08 23:53:00
7:53 PM,50.0,46.0,86,30.24,8.0,Calm,Calm,-,N/A,,Clear,0,2011-11-09 00:53:00
8:53 PM,48.0,46.0,93,30.24,7.0,Calm,Calm,-,N/A,,Clear,0,2011-11-09 01:53:00
9:53 PM,46.9,44.1,90,30.24,6.0,Calm,Calm,-,N/A,,Clear,0,2011-11-09 02:53:00
10:53 PM,46.9,45.0,93,30.23,6.0,Calm,Calm,-,N/A,,Clear,0,2011-11-09 03:53:00
11:53 PM,46.0,44.1,93,30.23,5.0,Calm,Calm,-,N/A,,Clear,0,2011-11-09 04:53:00